Flag for U.S.A. Weather past 2 weeks in Bridgeport, Connecticut, U.S.A.

Now
77 °F

Sunny.


Feels Like: 79 °F
Forecast: 63 / 77 °F
Wind: 8 mph from South

Location: Sikorsky Memorial Airport

Current Time: Aug 30, 2014 at 2:25:15 PM

Latest Report: Aug 30, 2014 at 12:52 PM


Visibility: 10 mi

Pressure: 30.24 "Hg

Humidity: 58%

Dew point: 61 °F

Location of BridgeportLocation

Historic Weather in Bridgeport — Graph

°F

Bridgeport temperature yesterday

Maximum temperature yesterday: 74 °F (at 10:52 AM)
Minimum temperature yesterday: 59 °F (at 5:52 AM)
Average temperature yesterday: 68 °F

Past Weeks' High & Low Weather Summary

 TemperatureHumidityPressure
High86 °F (Aug 27, 2:52 PM)94% (Aug 20, 4:52 AM)30.28 "Hg (Aug 20, 4:52 AM)
Low59 °F (Aug 16, 5:52 AM)36% (Aug 28, 5:52 PM)29.79 "Hg (Aug 17, 3:52 PM)
Average71 °F68%30.02 "Hg
* Reported Aug 15 12:52 PM — Aug 30 12:52 PM, Bridgeport, Weather by CustomWeather, © 2014

Note: Actual official high and low records may vary slightly from our data, if they occured in-between our weather recording intervals... More about our weather records

Advertising

Bridgeport weather history for previous 24 hours

 ConditionsComfort  
Time TempWeatherWind HumidityBarometerVisibility
12:52 PM
Aug 30
77 °FSunny.8 mph58%30.24 "Hg10 mi
11:52 AM74 °FSunny.8 mph64%30.25 "Hg10 mi
10:52 AM72 °FCloudy.7 mph68%30.27 "Hg10 mi
9:52 AM71 °FBroken clouds.9 mph71%30.27 "Hg10 mi
8:52 AM70 °FOvercast.13 mph71%30.28 "Hg10 mi
7:52 AM69 °FPassing clouds.13 mph73%30.27 "Hg10 mi
6:52 AM67 °FClear.8 mph79%30.28 "Hg10 mi
5:52 AM67 °FClear.8 mph79%30.27 "Hg10 mi
4:52 AM67 °FClear.6 mph76%30.27 "Hg10 mi
3:52 AM68 °FPassing clouds.10 mph73%30.27 "Hg10 mi
2:52 AM68 °FClear.8 mph70%30.26 "Hg10 mi
1:52 AM67 °FClear.5 mph73%30.27 "Hg10 mi
12:52 AM68 °FClear.6 mph68%30.27 "Hg10 mi
11:52 PM
Aug 29
67 °FClear.7 mph68%30.26 "Hg10 mi
10:52 PM67 °FClear.5 mph68%30.26 "Hg10 mi
9:52 PM69 °FClear.8 mph63%30.26 "Hg10 mi
8:52 PM69 °FClear.9 mph63%30.24 "Hg10 mi
7:52 PM71 °FSunny.8 mph59%30.21 "Hg10 mi
6:52 PM72 °FSunny.8 mph61%30.19 "Hg10 mi
5:52 PM74 °FSunny.7 mph50%30.19 "Hg10 mi
4:52 PM74 °FSunny.9 mph48%30.18 "Hg10 mi
2:52 PM73 °FSunny.10 mph53%30.18 "Hg10 mi
Weather by CustomWeather, © 2014

See weather overviewHow to use our weather pages